Location: Great Malvern
(52.1167°N, 2.3167°W)
Time: 10:16:18
(UTC+00:00)

Cosmos 2298 Rocket - Pass Details

Date: 18 September 2020
Orbit: 777 x 783 km, 74.0° (Epoch: 30 October)

Event Time Altitude Azimuth Distance (km) Brightness Sun altitude
Rises 19:57:59 0° 191° (S) 3,259 7.1 -16.0°
Reaches altitude 10° 20:00:23 10° 187° (S) 2,335 6.3 -16.3°
Maximum altitude 20:05:36 59° 109° (ESE) 902 4.0 -17.0°
Drops below altitude 10° 20:10:50 10° 31° (NNE) 2,350 6.5 -17.7°
Sets 20:13:16 0° 28° (NNE) 3,282 7.3 -18.1°
